Retour au catalogue

THORAD AGENA D DEB

ActifLEO
NORAD 4895·DEBRIS·🇺🇸 United States

Lancé Sep 30, 1969 depuis Vandenberg Space Force Base

Loading…

Prochains Passages (prochaines 24 heures)

TLE

FraisSource: Space-Track

Époque: Sep 13, 2026, 22:47 UTC

1  4895U 69082HE  26256.94938542  .00000719  00000-0  23007-3 0  9998
2  4895  70.1686 236.9205 0038992 164.9387 195.2916 14.42956016956003

Suivez THORAD AGENA D DEB en temps réel avec AllMySat

Download on the App Store